[[{"header":{"parameterUnit":"m.s-1","parameterCategory":1,"la1":30.2991,"la2":30.254,"lo1":-89.0895,"lo2":-89.0444,"dy":0.0017,"dx":0.0017,"nx":28,"ny":28,"refTime":"2024-03-17T03:00:00:Z","depth":0,"parameterNumber":2,"parameterNumberName":"U-component_of_WINDS"},"data":[0,0,0,0,0,0,0,0,0,0,0,0,0,0,0,0,0,0,0,0,0,0,0,0,0,0,0,0,0,0,0,0,0,0,0,0,0,0,0,0,0,0,0,0,0,0,0,0,0,0,0,0,0,0,0,0,0,0,3.0551,3.0551,0,3.0581,3.0581,3.0582,3.0587,3.0587,3.0587,3.0587,3.0616,3.0617,3.0618,0,0,0,0,0,0,0,0,0,0,0,0,0,3.0499,3.05,3.0551,3.0551,3.0552,3.0581,3.0581,3.0582,3.0588,3.0587,3.0587,3.0587,3.0616,3.0617,3.0618,0,0,0,0,0,0,0,0,0,0,0,0,0,3.0524,3.05,3.0551,3.0558,3.0559,3.0581,3.0581,3.0582,3.0588,3.0587,3.0587,3.0587,3.0615,3.0617,3.0618,3.0635,0,0,3.0623,3.0624,0,0,0,0,0,0,0,0,3.0523,3.0526,3.0557,3.0558,3.0559,3.058,3.0574,3.0599,3.0588,3.0577,3.0587,3.0586,3.0604,3.0607,3.0613,3.0636,3.0637,3.0623,3.0624,3.0625,3.0625,0,0,0,0,0,0,0,3.0521,3.0525,3.0563,3.0557,3.0558,3.056,3.0563,3.0579,3.0592,3.0578,3.0578,3.0582,3.0605,3.0612,3.0614,3.0638,3.0623,3.0624,3.0625,3.0626,3.0677,3.0677,0,0,0,0,0,0,3.0518,3.0524,3.0562,3.0564,3.054,3.0561,3.0565,3.0574,3.0592,3.0594,3.0582,3.0582,3.0609,3.0612,3.0615,3.0636,3.0625,3.0626,3.0627,3.0676,3.0677,3.0677,0,0,0,0,0,0,3.0517,3.0522,3.0561,3.0544,3.0549,3.0563,3.0572,3.0574,3.0581,3.0595,3.0598,3.0586,3.0609,3.0613,3.063,3.0637,3.0627,3.0628,3.0676,3.0676,3.0677,3.0677,0,0,0,0,0,0,3.0516,3.0521,3.0527,3.0544,3.055,3.0575,3.0573,3.0575,3.0584,3.0584,3.06,3.0602,3.0609,3.0628,3.0631,3.0639,3.0629,3.0675,3.0676,3.0677,3.0676,3.0677,3.0678,0,0,0,0,0,3.0514,3.0525,3.0527,3.0532,3.0558,3.0575,3.0579,3.0587,3.0584,3.0591,3.06,3.0602,3.0636,3.0629,3.0634,3.0641,3.0675,3.0676,3.0677,3.0676,3.0677,3.0678,0,0,0,0,0,0,3.0508,3.0528,3.053,3.0548,3.056,3.0576,3.0584,3.0588,3.0601,3.06,3.0609,3.0613,3.063,3.0637,3.063,3.0659,3.0655,3.0657,3.0653,3.0654,3.0655,3.0653,3.063,0,0,0,0,0,3.0509,3.0522,3.0538,3.0552,3.0558,3.0571,3.0578,3.0584,3.0597,3.0602,3.0612,3.0625,3.0638,3.0647,3.066,3.0678,3.0681,3.0685,3.0686,3.0687,3.0688,3.0699,3.0701,3.068,3.068,3.068,0,0,3.0511,3.0523,3.0531,3.0552,3.0562,3.0575,3.0575,3.0588,3.0598,3.0604,3.0621,3.0629,3.0644,3.0661,3.067,3.0668,3.0695,3.0688,3.0689,3.069,3.07,3.0702,3.0704,3.0681,3.0681,3.0681,0,0,3.0521,3.0531,3.0545,3.0555,3.0571,3.0579,3.0583,3.0599,3.0605,3.0623,3.0627,3.0639,3.0662,3.0673,3.0681,3.0697,3.0699,3.0701,3.0706,3.0717,3.0718,3.072,3.0726,3.0728,3.0703,3.0703,3.0703,0,3.0521,3.0541,3.0551,3.0565,3.0574,3.0581,3.0594,3.0604,3.0623,3.063,3.0628,3.0658,3.0668,3.0689,3.0693,3.0699,3.0704,3.0699,3.0718,3.0719,3.0721,3.0726,3.0729,3.0703,3.0703,3.0703,3.0703,0,3.0541,3.0555,3.0564,3.0583,3.0593,3.0607,3.0619,3.0628,3.0633,3.0642,3.066,3.0673,3.0689,3.0695,3.0699,3.0717,3.0716,3.0716,3.0712,3.0723,3.0728,3.073,3.0703,3.0703,3.0703,3.0703,0,0,3.0546,3.0572,3.0575,3.0584,3.0603,3.0614,3.0629,3.0646,3.0654,3.0667,3.068,3.07,3.0701,3.071,3.0717,3.0726,3.0738,3.0725,3.0725,3.0727,3.0759,3.0758,3.0761,3.0741,3.0741,3.0741,3.0758,0,3.0558,3.0585,3.0595,3.0616,3.063,3.0637,3.065,3.0663,3.0672,3.0685,3.0695,3.0709,3.0709,3.0715,3.0724,3.0735,3.0745,3.0734,3.0752,3.0753,3.0748,3.0764,3.0763,3.0777,3.076,3.076,3.0761,0,3.0575,3.059,3.0613,3.0632,3.0638,3.0649,3.0666,3.0678,3.0694,3.07,3.0711,3.0717,3.0733,3.073,3.0752,3.0744,3.0753,3.0759,3.076,3.0761,3.0757,3.0765,3.0782,3.0784,3.0764,3.0764,3.0763,0,3.0577,3.0603,3.062,3.0628,3.065,3.0658,3.0668,3.0683,3.0693,3.0708,3.0714,3.0731,3.0739,3.0752,3.0762,3.0759,3.0784,3.0781,3.0789,3.0789,3.0793,3.0793,3.0811,3.08,3.0799,3.0799,3.0799,0,3.059,3.0603,3.0622,3.0632,3.0648,3.066,3.0676,3.0686,3.07,3.0712,3.072,3.0732,3.0745,3.0759,3.0767,3.0785,3.0789,3.0794,3.0796,3.0793,3.0792,3.0798,3.0797,3.08,3.08,3.08,3.08,0,3.0594,3.0607,3.0626,3.0646,3.0651,3.0662,3.0679,3.069,3.07,3.0717,3.0721,3.0737,3.0754,3.0766,3.0787,3.0793,3.0811,3.0813,3.0806,3.0807,3.0814,3.0814,3.0837,3.0841,3.0827,3.0827,3.0827,0,3.06,3.0611,3.0633,3.0642,3.0652,3.0667,3.0678,3.069,3.0701,3.0721,3.0729,3.0747,3.0761,3.0788,3.0801,3.0818,3.082,3.0827,3.0822,3.0819,3.082,3.0819,3.082,3.0827,3.0827,3.0828,3.0828,0,3.0611,3.0617,3.0632,3.065,3.0662,3.0677,3.0691,3.0699,3.0714,3.0726,3.0743,3.0755,3.0777,3.0795,3.0813,3.0823,3.0828,3.0829,3.0832,3.0829,3.0824,3.0827,3.0808,3.0828,3.0828,3.0828,3.0828,3.0828,3.0616,3.0627,3.0644,3.0661,3.0673,3.0687,3.0699,3.0711,3.0726,3.0746,3.0752,3.0771,3.0787,3.0813,3.0823,3.0838,3.0837,3.0841,3.0842,3.0843,3.0843,3.0822,3.0841,3.0841,3.0841,3.0841,3.0841,0,3.0627,3.0639,3.0654,3.0675,3.0689,3.0693,3.071,3.0721,3.0737,3.0752,3.0767,3.0788,3.0805,3.082,3.0839,3.0847,3.085,3.0852,3.0851,3.0853,3.0842,3.0838,3.0849,3.0849,3.0849,3.0849,3.0849,3.0849,3.0634,3.0652,3.0661,3.0686,3.0698,3.0716,3.0725,3.0738,3.0751,3.0774,3.0789,3.0799,3.0814,3.0834,3.085,3.0854,3.086,3.0861,3.0866,3.0855,3.0854,3.0853,3.0849,3.0863,3.0863,3.0876,3.0876,3.0876]},{"header":{"parameterUnit":"m.s-1","parameterCategory":1,"la1":30.2991,"la2":30.254,"lo1":-89.0895,"lo2":-89.0444,"dy":0.0017,"dx":0.0017,"nx":28,"ny":28,"refTime":"2024-03-17T03:00:00:Z","depth":0,"parameterNumber":3,"parameterNumberName":"V-component_of_WINDS"},"data":[0,0,0,0,0,0,0,0,0,0,0,0,0,0,0,0,0,0,0,0,0,0,0,0,0,0,0,0,0,0,0,0,0,0,0,0,0,0,0,0,0,0,0,0,0,0,0,0,0,0,0,0,0,0,0,0,0,0,-6.2724,-6.2724,0,-6.2722,-6.2722,-6.2722,-6.2684,-6.2683,-6.2682,-6.2681,-6.2678,-6.2679,-6.268,0,0,0,0,0,0,0,0,0,0,0,0,0,-6.2696,-6.2697,-6.2724,-6.2724,-6.2724,-6.2722,-6.2722,-6.2722,-6.2684,-6.2683,-6.2682,-6.2681,-6.2678,-6.2679,-6.268,0,0,0,0,0,0,0,0,0,0,0,0,0,-6.2703,-6.2697,-6.2724,-6.2705,-6.2703,-6.2722,-6.2722,-6.2722,-6.2684,-6.2683,-6.2681,-6.268,-6.2678,-6.2679,-6.268,-6.2717,0,0,-6.2684,-6.2684,0,0,0,0,0,0,0,0,-6.2702,-6.2704,-6.2708,-6.2707,-6.2705,-6.2702,-6.2711,-6.272,-6.2685,-6.2692,-6.2681,-6.2679,-6.2687,-6.2688,-6.269,-6.2717,-6.2717,-6.2684,-6.2685,-6.2685,-6.2686,0,0,0,0,0,0,0,-6.2702,-6.2704,-6.2723,-6.2708,-6.2706,-6.2697,-6.2696,-6.2713,-6.2698,-6.2691,-6.2688,-6.2688,-6.2686,-6.2689,-6.269,-6.2717,-6.2684,-6.2685,-6.2686,-6.2686,-6.2774,-6.2775,0,0,0,0,0,0,-6.2704,-6.2703,-6.2724,-6.2723,-6.27,-6.2698,-6.2698,-6.2704,-6.2697,-6.2695,-6.269,-6.2687,-6.2688,-6.2689,-6.269,-6.2732,-6.2685,-6.2686,-6.2687,-6.2772,-6.2774,-6.2776,0,0,0,0,0,0,-6.2704,-6.2706,-6.2724,-6.2713,-6.2714,-6.27,-6.2708,-6.2705,-6.2708,-6.2696,-6.2693,-6.2696,-6.2687,-6.2688,-6.2711,-6.2732,-6.2687,-6.2688,-6.277,-6.2773,-6.2775,-6.2818,0,0,0,0,0,0,-6.2703,-6.2706,-6.272,-6.2713,-6.2715,-6.2744,-6.2709,-6.2706,-6.271,-6.2706,-6.2701,-6.2699,-6.2686,-6.2709,-6.2712,-6.2732,-6.2689,-6.2768,-6.2771,-6.2774,-6.2814,-6.2821,-6.2827,0,0,0,0,0,-6.2702,-6.2732,-6.2721,-6.2724,-6.2732,-6.2746,-6.2747,-6.2731,-6.2712,-6.2726,-6.2719,-6.2699,-6.2729,-6.2712,-6.2714,-6.2736,-6.2767,-6.277,-6.2774,-6.2811,-6.282,-6.2827,0,0,0,0,0,0,-6.2741,-6.2731,-6.2718,-6.2747,-6.2748,-6.2739,-6.2756,-6.274,-6.2746,-6.2742,-6.2722,-6.2721,-6.2747,-6.2744,-6.2724,-6.2771,-6.2745,-6.2749,-6.2772,-6.278,-6.2786,-6.2786,-6.269,0,0,0,0,0,-6.2753,-6.2765,-6.2756,-6.2782,-6.2783,-6.277,-6.2775,-6.2763,-6.2763,-6.2763,-6.2757,-6.2757,-6.2767,-6.2774,-6.2782,-6.2814,-6.2812,-6.283,-6.2837,-6.2842,-6.2846,-6.2863,-6.287,-6.2787,-6.2787,-6.2787,0,0,-6.2778,-6.2774,-6.2782,-6.279,-6.2789,-6.2802,-6.277,-6.2785,-6.2794,-6.2765,-6.2786,-6.2782,-6.2781,-6.2809,-6.2821,-6.2807,-6.2869,-6.2847,-6.2851,-6.2852,-6.2867,-6.2875,-6.2882,-6.279,-6.2789,-6.2789,0,0,-6.2829,-6.2827,-6.2849,-6.2849,-6.2848,-6.2839,-6.2845,-6.2839,-6.2836,-6.2856,-6.2835,-6.2846,-6.2863,-6.2863,-6.2866,-6.2919,-6.2901,-6.2922,-6.2955,-6.2972,-6.2978,-6.2984,-6.3002,-6.3009,-6.2926,-6.2926,-6.2926,0,-6.2859,-6.2878,-6.2862,-6.2879,-6.2882,-6.2857,-6.2879,-6.288,-6.2882,-6.2885,-6.287,-6.2891,-6.2889,-6.2916,-6.2929,-6.2932,-6.2938,-6.2922,-6.2979,-6.2984,-6.2989,-6.3007,-6.3014,-6.2929,-6.2928,-6.2928,-6.2928,0,-6.2915,-6.2929,-6.2947,-6.295,-6.2956,-6.2975,-6.2962,-6.297,-6.2958,-6.2951,-6.2973,-6.2969,-6.2976,-6.2982,-6.2971,-6.3008,-6.3,-6.2982,-6.2955,-6.3,-6.3016,-6.3023,-6.2932,-6.2931,-6.2931,-6.293,0,0,-6.2989,-6.2984,-6.2991,-6.2992,-6.299,-6.3,-6.3019,-6.3026,-6.3033,-6.3036,-6.3051,-6.3066,-6.305,-6.3053,-6.3042,-6.3056,-6.3098,-6.3037,-6.3037,-6.3048,-6.3139,-6.3152,-6.316,-6.3087,-6.3089,-6.309,-6.3139,0,-6.3038,-6.3069,-6.3056,-6.3088,-6.31,-6.3077,-6.3093,-6.3094,-6.3089,-6.3098,-6.3092,-6.3103,-6.3081,-6.3083,-6.3097,-6.309,-6.3116,-6.3087,-6.31,-6.3101,-6.31,-6.3168,-6.3181,-6.3228,-6.3145,-6.3146,-6.3147,0,-6.3099,-6.3104,-6.3138,-6.3135,-6.3139,-6.3154,-6.316,-6.317,-6.317,-6.3165,-6.3169,-6.3155,-6.3173,-6.3147,-6.3171,-6.3151,-6.3156,-6.3154,-6.3156,-6.3155,-6.3126,-6.3168,-6.3242,-6.3249,-6.3157,-6.3156,-6.3155,0,-6.3148,-6.3164,-6.3187,-6.3189,-6.3185,-6.3196,-6.3195,-6.3195,-6.32,-6.3206,-6.3209,-6.3217,-6.322,-6.3227,-6.3214,-6.3197,-6.3241,-6.3214,-6.3236,-6.3237,-6.3245,-6.3245,-6.332,-6.3251,-6.3251,-6.3251,-6.325,0,-6.3203,-6.3225,-6.3209,-6.3222,-6.3246,-6.3231,-6.3254,-6.3251,-6.3251,-6.3263,-6.3245,-6.3257,-6.324,-6.3251,-6.3242,-6.3263,-6.3265,-6.3262,-6.3259,-6.3262,-6.3263,-6.3264,-6.326,-6.3252,-6.3252,-6.3252,-6.3251,0,-6.3262,-6.3252,-6.3275,-6.327,-6.327,-6.3287,-6.3283,-6.3296,-6.329,-6.3306,-6.3309,-6.3299,-6.331,-6.3299,-6.331,-6.3304,-6.3333,-6.3326,-6.3332,-6.333,-6.3353,-6.335,-6.3431,-6.344,-6.3366,-6.3367,-6.3368,0,-6.3297,-6.3313,-6.331,-6.3318,-6.3318,-6.333,-6.3336,-6.3322,-6.3329,-6.3332,-6.3344,-6.3354,-6.3361,-6.3381,-6.3375,-6.3383,-6.3375,-6.3403,-6.3376,-6.338,-6.3375,-6.3373,-6.3375,-6.3408,-6.3409,-6.341,-6.341,0,-6.336,-6.3355,-6.3364,-6.3372,-6.3379,-6.3385,-6.3389,-6.3396,-6.3382,-6.3391,-6.3403,-6.3408,-6.342,-6.343,-6.3437,-6.3436,-6.3421,-6.3419,-6.3424,-6.3428,-6.3431,-6.3429,-6.3346,-6.3417,-6.3416,-6.3416,-6.3415,-6.3415,-6.3407,-6.342,-6.3421,-6.3432,-6.3434,-6.3438,-6.345,-6.3445,-6.3455,-6.3464,-6.3455,-6.347,-6.3471,-6.3478,-6.3479,-6.349,-6.3479,-6.3487,-6.3489,-6.3491,-6.3494,-6.343,-6.3492,-6.3491,-6.3491,-6.3491,-6.3491,0,-6.3468,-6.3468,-6.3478,-6.3485,-6.3494,-6.348,-6.3484,-6.3492,-6.3505,-6.3507,-6.3515,-6.3529,-6.354,-6.3535,-6.3544,-6.3553,-6.3547,-6.3556,-6.3554,-6.3554,-6.3504,-6.3498,-6.3561,-6.3561,-6.3561,-6.3561,-6.3561,-6.3561,-6.3501,-6.3523,-6.3518,-6.354,-6.354,-6.3554,-6.3558,-6.3562,-6.3563,-6.358,-6.3589,-6.3586,-6.3585,-6.3594,-6.3603,-6.3601,-6.3605,-6.3617,-6.3612,-6.3565,-6.3558,-6.3551,-6.3545,-6.3618,-6.3618,-6.3662,-6.3662,-6.3662]}]]